Location: Unspecified
(42.9300°N, 71.1866°W)
Time: 19:36:03
(UTC-04:00)

Okean 3 - Visible Passes

Search period start: 22 August 2014 00:00
Search period end: 01 September 2014 00:00
Orbit: 583 x 611 km, 82.5° (Epoch: 22 August)

Date Brightness Start Highest point End Pass type
(mag) Time Alt. Az. Time Alt. Az. Time Alt. Az.
22 Aug 6.4 04:17:20 10° ESE 04:19:31 14° E 04:21:43 10° NE visible
23 Aug 6.0 04:26:30 10° SE 04:29:43 22° E 04:32:57 10° NE visible
24 Aug 5.2 04:36:11 10° SSE 04:39:58 33° E 04:43:45 10° NNE visible
25 Aug 4.2 04:46:09 10° S 04:50:15 54° E 04:54:22 10° NNE visible
26 Aug 3.4 04:56:23 10° S 05:00:35 88° E 05:04:49 10° N visible
27 Aug 6.4 03:32:40 10° ESE 03:34:08 12° E 03:35:35 10° ENE visible
27 Aug 3.5 05:06:50 10° SSW 05:10:58 57° W 05:15:07 10° N visible
28 Aug 6.0 03:41:25 10° SE 03:44:18 18° E 03:47:11 10° NE visible
28 Aug 4.1 05:17:32 10° SW 05:21:24 36° WNW 05:25:18 10° N visible
29 Aug 5.3 03:51:13 12° SSE 03:54:30 28° E 03:58:07 10° NNE visible
29 Aug 4.7 05:28:31 10° SW 05:31:53 23° WNW 05:35:17 10° NNW visible
30 Aug 4.4 04:02:11 20° SSE 04:04:46 44° E 04:08:47 10° NNE visible
31 Aug 3.6 04:13:07 30° S 04:15:05 73° E 04:19:17 10° NNE visible
